Theta_e
287 288 289 290 289 289 289 288 287 288 288 288 286 288 288 289 284 281 287 289 290 291 294 305 310 310 310 313 316 317 318 318 318 317 316 316 317 318 320 320 322 322 323 325 327 330 332 334 338 339 342 342 343 344 345 347 348 348 349 348 348 348 348 348 348 349 349 349 349 349 349 347 347 346 345 344 344 343 342 341 342 343 343 343 341 341 342
287 288 289 290 288 288 288 288 288 288 288 288 287 287 289 289 287 288 289 289 292 292 297 308 309 310 311 312 315 317 316 315 316 316 316 316 317 318 318 320 321 321 322 324 325 328 329 331 335 337 340 342 343 343 344 346 348 349 350 349 348 348 348 348 350 350 350 351 350 349 349 348 348 348 347 346 345 344 343 342 342 343 343 343 343 342 341
284 287 290 289 288 288 286 288 288 288 288 288 287 288 290 294 290 291 292 289 289 293 302 307 310 309 310 311 311 313 314 314 314 314 315 316 317 318 319 320 320 321 322 323 324 326 328 329 332 336 337 339 343 344 344 346 348 350 351 350 349 349 349 350 350 351 351 351 351 350 350 350 349 349 348 348 347 346 345 344 343 342 343 342 343 343 343
281 285 287 287 288 288 286 285 287 287 287 286 287 287 291 291 290 293 292 291 292 300 308 309 308 308 307 307 309 310 312 313 314 313 314 315 316 317 319 320 321 320 321 322 323 325 328 329 332 334 336 338 341 344 345 346 347 350 351 350 350 350 350 351 351 351 352 352 351 351 351 350 350 350 350 349 349 348 347 346 346 345 343 343 343 343 344
278 284 287 287 286 283 280 283 285 289 289 290 289 290 292 294 297 293 293 292 302 304 308 306 306 306 306 307 309 309 310 312 313 313 314 314 316 316 318 319 321 320 321 322 324 326 329 330 331 333 336 338 337 340 345 347 349 350 350 351 350 351 351 352 352 352 352 352 352 352 351 351 351 351 350 349 349 349 348 349 348 347 345 344 344 344 344
278 284 285 286 280 274 276 287 292 292 288 289 287 287 289 292 302 297 301 302 304 304 305 305 305 305 305 307 310 313 311 310 312 313 314 315 316 317 317 319 320 321 322 323 325 327 329 331 333 334 338 338 339 340 345 351 350 349 349 351 351 351 352 352 352 352 353 352 352 352 352 352 352 351 350 349 350 350 350 350 349 348 348 346 346 345 344
278 282 284 280 273 276 288 291 293 293 292 291 290 290 297 301 301 301 301 302 302 303 305 306 309 308 308 310 310 313 314 312 312 313 313 314 315 316 316 317 319 320 322 323 326 328 328 331 332 334 334 336 337 339 342 348 346 345 346 346 350 351 352 352 353 353 353 352 352 352 352 352 351 351 350 350 350 350 350 349 349 348 348 348 347 347 346
280 279 277 270 274 283 291 291 294 297 294 297 296 293 300 301 300 300 299 301 302 303 304 306 307 311 309 310 311 311 313 313 312 312 313 315 315 315 316 317 318 318 320 323 325 327 332 331 331 333 332 334 335 337 341 346 346 345 346 345 346 350 351 353 353 354 353 353 353 353 352 352 351 351 350 350 349 350 350 350 350 350 350 350 348 348 348
278 278 278 279 285 286 287 287 292 295 291 293 292 288 291 299 300 300 299 300 302 303 303 304 306 307 309 308 306 311 312 312 313 312 314 314 316 316 318 318 319 320 321 322 324 328 329 331 332 333 333 335 336 335 339 341 343 344 344 344 345 348 351 352 354 354 355 354 353 353 353 352 351 351 350 350 350 351 349 349 349 348 349 349 349 349 348
284 280 276 277 277 274 280 290 296 298 297 298 298 294 291 300 300 302 300 299 300 301 302 303 304 306 306 302 303 307 312 313 312 313 313 315 318 318 318 319 320 321 322 322 324 326 326 329 331 332 333 334 336 336 338 340 341 342 345 345 346 347 348 350 352 354 355 355 354 354 353 352 352 352 352 352 351 352 350 349 348 349 349 349 349 350 348
281 280 276 273 271 277 286 289 295 297 297 297 299 293 288 299 298 300 300 300 300 301 301 302 303 301 297 297 302 306 309 313 314 311 312 314 317 319 318 319 318 320 321 323 325 325 325 327 328 331 333 333 335 338 339 340 342 342 344 346 347 347 348 349 350 351 353 354 355 354 354 353 353 353 352 352 352 352 351 350 350 350 350 349 349 349 349
282 280 277 276 281 276 286 293 295 297 297 299 293 281 284 297 297 298 300 300 300 301 301 303 300 298 294 296 301 307 310 314 315 313 313 313 315 317 319 319 320 321 323 323 322 322 323 324 326 327 331 331 335 339 340 342 343 343 344 344 346 349 349 349 350 350 351 352 353 353 354 354 354 354 354 353 352 352 351 351 350 350 350 349 348 348 350
284 285 279 281 284 290 293 293 296 296 298 296 283 277 287 295 296 299 300 301 302 302 301 301 298 300 302 303 305 308 310 312 313 314 314 314 314 315 318 319 323 320 322 322 322 322 323 323 325 327 330 330 332 334 338 337 337 336 337 338 339 342 346 349 349 349 350 350 351 352 354 354 355 355 355 353 353 352 351 351 350 350 349 349 348 348 349
278 278 279 280 283 290 294 296 296 297 294 281 280 291 295 296 298 301 301 301 301 302 302 301 300 302 305 309 307 307 307 310 313 312 312 312 313 315 318 320 320 320 321 322 322 323 322 322 324 327 328 327 329 330 332 333 332 332 333 334 336 338 340 345 350 351 349 350 351 351 352 354 354 354 355 355 354 353 352 351 350 349 349 348 348 348 349
283 283 281 280 275 289 296 295 293 298 287 286 293 294 297 300 300 300 300 300 301 301 300 302 303 304 305 305 305 306 306 308 310 311 311 310 312 313 314 316 319 320 320 320 321 321 321 321 324 325 325 325 326 328 328 329 330 330 331 332 333 334 336 341 347 351 352 349 349 351 351 352 353 353 354 354 354 353 352 351 349 349 348 348 347 347 347
278 279 278 278 285 289 296 293 285 290 295 296 296 297 296 300 300 299 299 299 300 301 300 300 301 302 303 304 304 304 305 307 309 311 311 311 313 313 315 316 317 320 319 321 321 320 320 321 323 323 323 323 324 325 325 328 327 329 329 330 330 331 333 338 344 349 352 352 350 350 351 351 352 352 353 354 354 353 352 351 349 348 348 348 347 346 346
282 280 283 287 289 293 296 295 295 296 297 298 299 299 297 296 297 299 298 298 299 300 300 300 300 301 302 303 304 303 304 306 307 309 310 311 311 312 314 314 317 319 319 320 321 319 319 320 321 321 322 321 322 323 325 326 326 326 328 328 328 329 332 336 342 346 350 352 351 350 350 351 351 352 352 353 352 353 352 351 350 348 348 348 347 346 346
289 291 291 293 293 294 294 297 298 296 296 299 298 296 294 295 297 298 296 297 298 299 300 299 300 301 302 302 303 304 305 305 306 311 311 311 312 312 313 313 315 317 318 320 320 320 318 319 319 320 320 320 320 322 324 325 324 325 326 326 327 329 332 336 339 343 346 349 351 350 350 350 351 353 353 353 353 352 352 351 350 349 348 348 347 346 346
285 281 290 291 291 293 294 294 295 296 298 297 296 295 295 296 297 297 298 298 298 299 300 299 300 301 302 302 303 304 304 305 305 306 308 309 311 311 311 313 315 315 317 317 320 320 318 318 318 319 320 320 321 322 323 322 323 323 324 325 327 330 331 333 338 342 345 347 349 349 349 350 351 353 354 354 353 352 352 351 351 350 349 347 347 346 346
285 286 288 290 292 293 294 294 293 293 294 295 296 297 297 297 298 298 298 298 298 299 299 300 300 301 302 302 302 303 304 304 305 305 307 308 310 312 313 313 315 315 314 316 318 320 318 318 317 318 319 319 320 321 321 321 322 322 323 325 326 328 330 333 338 343 344 347 348 348 348 349 350 351 353 354 353 352 352 352 351 350 349 348 347 347 346
288 290 292 293 292 292 293 293 295 295 294 294 295 296 297 297 297 297 298 299 299 299 299 301 301 300 301 302 302 303 304 304 305 305 306 307 309 311 312 313 316 315 315 317 318 319 318 318 317 317 318 318 319 319 320 320 320 320 322 324 325 326 329 334 340 342 342 344 347 347 348 349 351 352 353 353 354 354 355 355 354 352 351 350 350 350 349
284 285 288 289 285 285 288 290 294 294 295 295 295 296 296 297 296 297 297 298 300 300 301 301 301 300 300 302 302 302 303 304 304 305 306 307 308 310 313 314 315 315 318 317 317 318 318 317 317 318 318 318 318 319 318 319 319 320 321 322 323 326 330 335 339 341 342 343 346 347 348 348 350 351 346 334 344 355 354 342 336 333 332 350 353 352 350
284 290 292 291 291 290 291 293 294 295 295 295 295 296 296 297 297 298 298 297 298 298 300 301 301 300 301 301 302 302 303 304 305 306 306 307 308 310 312 313 314 315 315 318 318 318 317 317 317 318 317 317 317 317 317 318 319 319 319 321 324 325 328 332 336 339 340 341 344 347 348 350 351 350 350 346 313 305 313 328 328 319 316 321 326 333 348
292 292 291 292 291 291 293 294 295 295 296 296 296 297 298 298 298 299 298 298 297 298 299 300 301 301 301 301 302 301 302 303 304 305 306 307 308 311 313 314 315 316 316 316 316 317 316 317 316 317 316 316 316 316 316 317 318 318 319 320 322 324 326 328 332 337 340 340 341 344 348 350 351 351 350 349 338 314 302 313 325 314 314 313 316 317 322
292 293 293 293 294 294 295 296 296 297 299 300 298 297 298 298 299 300 299 299 299 299 298 299 300 302 301 301 302 301 301 302 304 306 309 311 311 312 313 314 315 316 316 315 315 316 315 316 316 317 315 315 316 315 316 317 318 318 319 320 321 323 325 328 331 336 340 339 339 341 346 350 351 352 351 350 347 340 331 306 305 314 315 315 313 313 314
296 294 294 295 296 295 296 296 296 297 297 298 297 298 299 302 301 301 299 299 298 299 299 299 300 301 302 301 301 302 302 302 306 308 306 306 307 309 310 312 315 317 315 315 315 314 313 314 315 314 313 314 315 315 316 317 317 317 318 320 322 324 327 331 335 338 340 338 338 341 341 341 345 351 352 352 350 344 340 339 336 323 311 309 312 313 309
295 295 295 294 293 294 295 294 294 296 296 297 297 297 298 298 301 300 299 299 299 300 300 301 301 301 302 302 304 303 302 303 305 305 305 305 307 308 310 312 315 316 318 316 313 313 315 314 313 312 312 313 314 315 315 316 316 317 318 320 322 327 333 336 335 337 340 340 339 340 341 341 341 342 344 348 347 345 345 343 342 343 345 343 319 309 327
296 295 296 292 290 291 293 295 297 297 297 297 297 297 298 298 298 297 297 298 298 300 301 303 303 303 303 303 303 302 303 303 303 304 305 306 307 309 311 313 316 316 313 311 310 311 312 311 311 311 311 313 314 314 315 315 316 317 318 320 321 323 325 328 329 329 332 337 338 338 338 339 341 344 343 343 345 346 343 345 346 346 345 350 342 316 303
295 295 297 297 297 297 296 295 296 295 296 297 298 297 298 297 297 298 297 297 297 298 299 300 302 303 302 303 303 303 303 303 304 304 305 307 309 310 311 315 316 314 310 308 308 309 310 310 310 310 311 313 313 313 314 315 315 317 318 319 320 322 324 324 325 325 329 335 338 336 335 335 337 340 343 343 343 344 344 344 345 345 344 337 330 330 323
296 296 296 297 297 297 295 294 295 295 296 296 296 296 297 297 297 297 297 296 297 297 299 301 301 301 303 303 303 303 304 304 306 307 308 309 309 311 315 315 311 310 308 307 306 308 309 309 309 309 311 312 312 313 313 314 315 316 317 318 320 322 322 322 323 324 328 334 338 335 335 336 337 339 341 341 343 343 342 342 342 342 341 337 332 336 337
294 294 295 295 295 295 295 295 296 296 296 296 296 296 296 297 297 296 296 297 298 298 300 301 301 302 302 303 304 304 306 306 307 309 309 310 311 314 315 313 309 306 305 306 307 308 308 308 309 309 311 311 311 312 313 313 315 315 316 317 319 319 319 319 321 323 326 334 338 338 336 336 335 336 337 338 339 340 341 341 340 340 341 341 340 338 339
294 294 294 293 293 294 294 295 295 295 295 296 295 295 295 296 296 296 297 297 298 299 300 301 301 302 303 303 304 305 306 307 308 309 310 312 314 312 311 310 309 308 306 307 308 308 308 308 307 309 311 311 311 312 312 313 314 314 314 317 318 318 320 318 321 322 327 331 336 339 338 337 336 336 335 337 337 337 338 339 339 339 339 339 338 340 336
292 291 290 291 293 292 294 294 294 294 294 295 295 296 297 298 298 299 298 299 300 301 301 301 302 303 304 304 304 305 307 308 309 310 312 312 311 310 310 309 307 306 306 306 307 308 307 306 307 310 310 310 310 311 312 313 314 313 314 315 316 318 321 319 318 320 323 324 324 326 333 338 338 337 337 336 337 338 338 337 337 337 337 338 337 330 330
293 292 292 292 294 293 292 293 293 293 294 296 296 296 297 298 299 299 299 301 301 301 301 302 303 305 305 305 306 307 308 309 309 311 311 310 309 309 309 309 307 305 304 304 307 308 307 308 309 310 309 309 310 311 311 313 313 312 314 314 315 316 317 318 317 319 319 319 320 322 324 327 332 336 338 338 338 339 338 337 336 335 330 322 320 319 312
295 294 294 293 294 295 295 294 293 294 295 295 296 296 298 299 300 300 302 301 300 301 303 304 304 306 308 309 308 308 309 309 310 309 309 309 309 309 309 308 307 306 305 305 305 305 307 308 309 310 309 309 309 309 310 313 312 311 313 314 316 316 315 317 316 316 316 317 317 317 318 320 321 324 327 331 334 336 336 335 334 331 327 323 317 317 313
295 294 294 294 294 295 296 296 296 296 296 296 296 297 299 300 300 300 300 300 302 303 303 302 303 304 304 304 306 308 307 309 307 307 307 307 307 307 307 307 305 304 304 304 306 307 308 307 310 310 308 308 309 308 311 313 312 310 313 312 313 314 314 314 314 314 314 314 314 315 315 316 317 318 319 320 321 324 325 324 323 323 321 317 315 313 312
296 295 295 295 295 295 295 295 296 295 296 297 298 298 299 300 300 301 302 301 302 302 302 302 301 300 301 302 304 304 303 303 303 303 305 306 306 306 305 305 305 303 303 302 304 308 307 307 308 309 308 307 308 308 311 314 311 309 310 310 311 311 311 311 311 310 310 312 312 312 314 313 311 311 313 312 312 313 315 314 314 315 314 314 314 313 311
296 296 296 295 295 295 295 296 297 298 297 297 298 299 301 300 301 301 301 301 301 302 303 301 300 300 301 301 301 301 302 303 303 303 303 303 304 303 303 303 302 303 302 302 305 307 307 306 307 306 306 306 306 307 310 312 312 307 307 308 309 309 309 308 309 309 308 308 310 309 310 309 308 308 308 308 308 309 309 309 309 309 308 308 308 307 306
296 297 297 296 296 296 296 297 297 297 299 296 297 298 300 302 301 301 301 301 301 303 302 301 301 300 299 299 298 299 300 301 302 302 302 302 303 302 301 301 302 304 305 306 305 306 307 306 304 304 305 305 306 306 309 311 310 306 306 306 307 307 306 306 306 306 306 306 306 306 306 307 307 307 307 306 306 306 307 307 307 306 305 305 304 304 303
295 295 295 296 295 295 295 296 296 296 296 297 296 297 300 301 300 300 300 300 300 302 301 300 300 299 299 298 297 297 299 300 300 301 301 302 302 301 301 301 303 304 305 306 305 305 307 306 304 303 304 305 306 305 307 308 307 306 305 305 305 305 305 305 304 304 304 304 304 305 303 304 305 305 305 305 305 305 304 304 303 303 302 302 301 301 301
296 295 295 295 296 295 295 295 295 296 296 296 296 298 299 300 300 300 299 300 300 301 300 301 299 298 298 299 299 299 299 300 300 300 300 300 299 299 298 297 301 304 304 304 304 304 305 305 304 302 303 304 305 306 305 306 305 304 304 304 304 304 304 303 303 303 302 302 303 301 301 302 302 302 302 301 302 302 303 302 301 300 299 299 299 299 298
295 295 295 296 296 295 295 295 296 295 295 296 298 298 298 301 301 300 300 300 300 299 299 300 301 299 299 299 299 299 299 299 299 299 299 299 298 298 297 298 302 304 305 304 304 303 302 302 304 304 303 303 304 306 305 304 302 303 303 303 303 303 303 303 302 302 302 302 301 301 301 300 300 300 301 300 299 299 299 299 299 299 298 298 298 297 297
297 296 296 296 296 296 296 296 295 295 296 295 296 297 298 299 300 300 300 300 300 299 298 298 300 300 299 298 297 297 297 298 299 299 298 299 300 300 299 300 302 303 305 303 302 301 301 301 302 303 304 303 303 304 303 301 301 301 302 302 303 302 302 301 301 302 301 300 299 300 299 299 299 298 299 298 298 299 299 297 297 297 298 297 298 297 296
299 296 296 296 297 298 296 296 296 296 294 295 296 296 297 298 299 300 300 300 299 299 298 297 297 298 298 298 297 296 295 296 297 298 298 297 298 300 302 302 302 304 304 303 302 301 301 301 302 303 305 304 303 303 301 300 300 300 300 301 301 301 300 300 300 300 299 300 300 299 299 300 299 298 298 298 297 297 298 298 297 297 297 297 297 296 296
298 297 297 297 297 299 297 296 296 295 295 297 296 297 297 297 298 300 300 299 299 299 299 298 297 298 297 297 296 295 296 296 297 297 296 296 296 297 302 303 303 303 303 302 301 301 301 301 302 303 302 303 302 302 299 299 299 299 299 299 299 300 300 299 299 299 299 299 299 299 299 299 299 299 298 299 299 298 297 297 297 297 297 296 296 295 295
298 298 299 304 297 295 296 296 297 296 296 295 294 297 298 297 299 300 300 299 298 298 299 298 298 298 297 297 298 297 296 296 296 297 297 297 297 298 302 303 303 302 302 302 301 300 300 303 302 302 302 302 301 299 298 298 299 298 298 298 298 298 298 298 299 298 298 299 298 298 297 297 298 298 298 297 298 298 299 299 298 298 298 298 297 296 295
299 299 299 297 295 296 297 298 298 297 296 295 293 294 297 297 298 298 299 299 298 298 299 299 300 300 300 298 297 295 294 294 294 296 296 297 299 300 301 302 302 302 302 301 301 300 301 301 301 301 301 301 300 297 297 297 297 297 297 297 297 297 298 297 297 297 297 297 298 298 298 298 296 296 297 297 297 297 298 297 296 296 297 298 297 297 296
300 299 297 297 297 297 298 298 297 294 294 294 295 297 297 297 297 297 298 298 299 298 298 299 299 300 301 300 299 298 296 294 292 293 295 295 296 297 298 298 300 300 301 301 301 301 301 300 300 300 300 300 298 297 297 297 297 297 296 296 296 296 296 296 296 296 296 297 296 295 294 294 294 295 295 295 295 295 295 295 295 296 295 295 295 295 295
299 299 299 299 298 297 297 297 297 297 294 296 297 297 299 300 299 298 299 299 298 298 298 298 298 299 299 303 301 299 300 300 296 294 296 296 295 295 297 299 300 300 300 299 299 300 301 300 299 299 299 298 296 296 296 296 297 297 296 296 295 295 295 295 295 295 295 295 296 295 295 294 294 294 294 294 294 295 295 294 294 293 293 293 294 294 294
300 300 299 296 296 295 296 297 295 294 296 298 295 298 301 300 297 295 298 298 298 300 296 297 297 297 298 298 299 299 299 300 300 299 299 298 297 297 297 297 298 299 299 298 297 298 299 299 299 299 299 297 297 296 296 296 295 296 295 296 295 295 295 295 295 295 295 295 294 294 294 294 294 295 296 295 295 295 294 294 294 294 294 293 293 292 292
301 299 298 300 298 297 296 296 296 297 296 298 298 301 301 300 298 298 298 297 295 297 296 295 295 295 296 297 298 298 298 299 300 301 299 298 299 299 298 297 297 297 297 297 296 296 297 297 297 298 297 297 297 297 296 295 295 295 295 294 294 294 294 294 294 294 293 294 293 293 293 293 293 293 293 294 294 294 294 294 294 293 293 292 292 291 291
300 299 298 297 296 296 296 296 298 297 298 299 299 301 302 299 299 298 298 300 297 297 296 294 294 296 296 296 300 299 300 300 301 300 301 300 299 297 299 298 296 296 295 294 294 295 296 297 298 298 297 295 296 296 296 296 295 294 294 295 295 294 295 294 294 294 294 293 293 292 292 292 292 291 292 292 292 292 292 292 292 292 292 292 291 291 290
Wind_Speed
2 3 1 1 2 1 2 3 3 7 7 6 4 2 4 0 1 6 8 5 3 5 7 8 7 7 6 8 10 10 9 9 12 14 15 16 16 17 18 17 16 16 17 14 16 14 12 14 11 4 7 9 9 11 12 13 13 15 14 14 15 15 15 15 16 15 14 13 13 13 13 13 13 13 13 12 12 11 11 11 10 11 11 11 10 10 9
1 2 2 2 3 3 4 2 3 4 6 7 4 4 4 1 4 6 9 6 5 6 5 6 7 7 6 6 6 10 14 15 13 13 14 13 13 14 14 14 14 15 14 15 14 14 16 15 13 14 10 4 11 12 13 12 13 13 13 14 14 15 15 16 15 14 14 12 12 12 12 13 13 13 12 12 11 11 11 12 11 11 10 11 11 11 10
3 2 3 2 3 3 3 5 5 4 6 6 4 1 2 4 1 3 8 6 5 3 8 9 6 6 5 10 13 12 11 13 14 13 14 14 14 14 12 13 14 14 14 14 14 14 15 14 13 12 10 11 9 9 11 12 13 14 14 14 14 15 16 15 14 13 12 13 12 13 13 13 12 12 13 12 11 11 11 11 11 11 10 11 11 11 11
5 3 5 5 4 4 4 5 4 4 2 2 2 3 2 1 2 4 4 3 3 7 11 7 6 8 11 10 9 9 9 11 12 13 14 14 14 15 12 12 14 13 13 15 14 13 13 12 13 12 12 11 11 10 7 11 13 13 15 15 16 16 16 14 13 13 13 13 13 14 13 14 14 13 12 12 12 12 11 11 11 9 11 11 11 11 10
3 4 3 7 7 5 4 3 0 0 0 1 3 3 4 3 2 1 1 2 1 4 6 6 8 8 9 10 10 9 9 9 10 11 12 11 12 12 13 14 13 13 11 10 11 10 10 11 10 11 12 10 11 11 12 7 7 11 13 14 14 14 14 13 13 13 12 13 13 13 13 13 13 12 12 13 13 12 13 12 9 10 12 11 11 11 11
3 6 7 5 6 5 3 3 0 1 3 5 6 6 8 5 0 3 2 1 3 4 7 6 5 7 8 6 6 6 6 8 8 9 9 10 10 10 11 12 14 13 11 10 9 7 8 10 9 9 7 10 10 11 11 6 1 1 1 5 11 13 12 13 13 13 13 13 14 14 13 12 12 12 13 14 14 13 11 10 11 12 11 12 11 11 12
1 2 6 7 3 7 2 6 5 4 4 3 5 8 2 2 5 7 6 4 6 3 5 7 4 4 3 3 5 6 8 7 7 8 8 9 10 10 10 10 10 11 14 15 13 11 11 13 11 10 11 10 12 12 11 7 1 8 7 2 5 6 10 11 12 12 13 14 14 14 14 13 13 13 14 13 12 12 11 12 12 12 12 12 11 11 12
2 3 1 0 9 3 4 4 5 4 1 4 4 2 0 2 1 3 3 5 7 4 3 6 7 5 4 4 5 5 6 7 8 9 8 8 9 10 10 10 7 7 9 11 11 11 10 10 12 10 10 12 12 13 11 8 1 3 8 11 11 9 9 10 12 12 13 13 13 13 13 13 14 14 14 14 14 12 11 11 11 10 10 11 12 13 12
2 3 5 8 6 11 6 1 4 5 2 4 3 1 3 1 4 5 4 5 5 9 5 2 8 9 8 2 4 6 5 5 6 8 8 8 9 9 9 10 9 7 8 8 9 8 8 9 10 11 11 11 11 12 12 9 5 2 3 5 5 7 9 11 12 12 12 13 13 13 13 13 14 14 14 13 12 10 11 12 12 12 12 12 11 12 12
3 2 1 4 3 3 4 1 2 1 1 3 3 2 4 1 5 4 5 6 4 4 9 8 9 10 3 2 5 6 5 4 6 6 7 7 7 8 9 9 9 9 8 9 10 8 9 9 8 8 10 10 9 10 10 11 8 6 3 4 5 5 6 8 10 12 12 13 13 13 12 14 15 13 12 10 11 11 12 12 13 13 12 12 12 12 13
3 1 2 2 3 6 2 3 4 5 5 5 1 3 4 1 4 5 5 8 6 3 5 10 7 4 2 2 5 8 9 5 5 6 6 8 8 7 7 9 11 11 10 10 9 9 8 10 10 10 10 10 9 7 9 10 10 9 4 4 4 5 6 6 6 8 9 11 12 12 13 13 12 13 13 13 11 11 12 12 12 11 11 11 11 11 13
2 2 2 5 4 3 2 3 4 6 5 3 5 7 4 2 7 6 6 7 9 6 3 5 5 2 2 3 6 8 9 5 5 5 7 7 8 8 7 8 8 9 10 9 9 8 9 9 9 7 7 7 6 5 8 11 6 6 10 11 11 10 7 5 7 8 9 10 11 12 13 13 12 12 11 11 12 12 12 12 12 11 11 11 13 12 12
3 5 3 2 5 1 1 1 4 8 6 1 2 8 6 3 6 5 4 7 7 7 6 3 6 3 2 4 6 7 8 7 5 5 4 5 6 7 9 8 8 8 8 8 8 8 8 9 8 7 6 6 5 4 3 8 10 10 10 10 10 10 9 10 8 8 9 11 12 12 12 12 12 11 11 13 13 13 13 12 12 12 13 12 13 13 12
3 3 3 5 5 3 0 2 6 4 1 2 8 1 2 6 5 5 3 6 6 6 6 5 6 7 5 5 4 5 7 7 5 5 6 7 7 6 6 8 7 7 8 9 9 9 8 9 10 8 6 6 6 4 3 4 7 8 9 9 9 10 11 10 10 9 9 11 12 11 11 10 10 11 11 12 11 13 11 11 13 14 13 12 12 12 11
1 1 2 4 5 2 1 3 4 2 1 4 0 7 6 2 6 6 6 3 5 4 6 6 8 11 11 6 5 5 6 8 7 5 5 7 7 8 8 8 9 9 8 9 10 10 10 10 8 8 8 7 7 6 5 6 7 8 8 8 8 9 10 11 10 10 9 10 11 9 10 12 12 13 11 11 12 12 12 12 13 14 13 12 12 11 10
4 4 4 6 8 3 2 2 2 3 4 3 5 4 9 4 3 5 6 5 4 6 6 7 7 9 10 11 8 5 4 6 8 6 4 5 7 6 6 8 9 10 9 9 10 10 10 9 9 8 7 7 7 6 6 7 8 8 8 7 7 8 8 9 9 10 10 10 10 11 12 12 13 14 12 12 12 11 12 12 12 13 12 11 11 11 12
5 7 8 8 3 4 3 3 5 5 6 4 5 3 5 6 5 3 6 7 8 7 8 9 8 8 7 8 10 8 4 4 6 9 8 6 7 7 7 8 7 7 9 12 10 10 9 10 9 9 7 7 8 7 6 7 7 8 8 9 8 8 8 8 8 9 9 9 10 11 12 12 12 12 13 12 12 11 11 12 12 12 12 11 12 12 11
3 6 10 6 5 6 4 3 3 4 5 5 3 3 5 4 5 5 7 9 9 9 8 9 8 7 7 7 8 9 7 4 5 7 8 6 5 7 6 6 6 5 8 10 11 11 11 10 11 9 8 7 9 7 7 7 8 7 8 8 7 7 9 8 8 9 10 10 10 11 13 12 12 12 13 13 13 12 12 12 13 13 12 12 12 12 12
2 6 2 3 6 3 2 4 4 5 6 5 2 4 5 7 7 8 7 8 10 11 11 10 10 10 7 8 7 8 9 7 4 4 7 9 6 6 8 7 5 6 5 8 11 13 13 12 11 10 10 8 7 7 7 8 9 8 8 7 6 6 7 9 9 9 10 9 8 9 12 12 12 11 12 12 12 12 12 13 13 13 12 11 11 11 12
5 9 3 3 2 3 4 5 7 7 5 4 4 5 6 8 8 8 9 9 11 9 10 9 9 10 8 8 8 8 8 9 7 5 4 8 9 8 7 7 6 5 4 4 8 11 11 11 12 12 11 9 8 7 7 8 9 9 9 7 7 7 9 9 9 9 10 13 11 9 10 11 12 12 12 13 13 13 13 14 14 13 11 11 12 12 12
6 7 12 12 7 8 8 6 6 6 4 4 7 8 9 10 11 12 10 8 9 9 11 10 10 12 11 8 7 8 9 8 8 7 6 6 9 9 8 7 6 6 5 5 5 8 10 10 11 12 12 11 9 8 7 8 8 9 10 10 9 9 8 8 9 8 9 10 9 8 9 10 12 12 13 13 14 14 16 14 14 14 13 13 14 14 13
6 8 10 2 3 6 4 4 6 5 5 4 7 8 10 11 11 11 13 12 9 9 10 10 10 12 11 8 6 8 8 10 10 9 9 7 7 9 8 7 6 7 7 6 5 5 7 8 10 11 12 11 10 8 8 8 8 10 11 10 9 9 8 9 10 9 7 8 10 9 9 9 10 10 14 18 17 15 14 18 21 21 18 15 15 13 13
8 10 9 5 7 5 7 7 6 5 4 3 7 10 11 12 11 11 11 13 14 12 10 9 10 11 11 11 9 10 9 10 10 9 10 10 8 8 9 8 8 7 8 7 6 5 5 7 9 10 11 11 11 9 9 9 9 10 11 10 8 8 8 8 10 10 9 8 8 8 9 9 9 10 8 5 8 9 6 4 11 18 18 20 17 14 12
9 4 4 6 6 7 6 5 5 5 4 4 8 10 10 11 12 11 11 11 13 14 13 13 11 12 13 12 11 13 12 11 11 11 9 10 9 8 9 8 9 9 8 8 7 6 4 5 8 9 11 10 9 10 11 10 9 9 10 9 8 8 8 9 11 10 8 9 8 7 7 8 8 8 7 7 2 8 7 2 3 13 16 14 12 14 16
9 5 5 7 7 8 7 5 4 5 5 4 7 9 10 11 12 12 13 13 11 13 14 15 14 12 13 14 12 14 13 12 12 12 11 11 14 11 8 8 9 9 8 6 6 5 4 5 7 8 9 11 9 10 11 11 10 10 10 9 9 8 8 9 10 12 10 9 8 7 5 5 7 7 8 8 9 6 1 3 8 16 18 18 19 19 20
9 4 3 2 1 4 3 1 5 7 7 4 5 7 11 13 15 16 14 12 13 13 14 15 16 16 13 14 13 13 13 14 13 14 11 11 11 9 9 9 9 8 6 5 4 3 4 5 6 6 8 9 10 11 12 11 10 10 11 11 10 8 8 9 10 10 10 9 8 7 5 2 3 5 8 9 10 10 9 4 1 3 6 16 21 19 15
5 3 3 1 3 6 4 6 8 5 4 4 6 9 11 11 14 13 11 11 13 13 14 15 15 15 14 14 14 14 14 14 12 14 13 13 13 12 10 9 8 7 5 3 2 3 7 7 8 7 8 9 9 11 12 12 10 10 11 12 9 11 16 13 9 10 9 8 8 7 5 3 3 2 5 7 9 11 11 10 9 10 10 9 5 12 15
5 4 7 8 7 5 5 7 8 6 4 6 7 8 10 10 11 13 14 14 12 11 12 12 12 12 13 12 11 13 13 14 14 14 14 13 11 10 10 9 7 4 3 1 0 2 5 6 8 9 9 8 10 11 12 12 11 11 11 12 10 8 8 10 10 9 10 9 7 6 5 3 4 5 6 7 8 10 10 10 11 11 9 9 4 0 3
5 5 5 8 9 8 3 1 1 3 7 7 6 6 8 12 14 13 13 12 13 14 13 13 12 13 13 13 11 12 12 12 14 15 14 12 10 10 10 9 6 5 3 2 0 1 4 5 7 8 9 8 9 11 11 11 10 10 11 10 9 7 7 8 10 10 11 10 7 5 5 4 3 5 7 8 9 7 8 10 11 9 5 1 3 3 2
6 4 4 6 8 5 4 5 6 6 7 7 6 7 8 11 13 13 12 13 13 15 15 15 14 13 13 13 13 12 13 14 14 13 12 11 11 11 9 6 5 4 3 2 1 2 4 5 6 8 8 8 10 10 11 10 9 10 11 11 9 7 6 8 9 10 11 10 7 6 6 5 5 6 6 7 9 9 10 10 9 8 8 6 5 7 9
5 4 6 4 4 3 5 8 6 7 7 7 7 8 10 9 12 13 13 14 14 15 16 16 16 16 14 14 13 12 12 13 13 12 11 11 10 7 7 6 6 2 2 1 1 2 3 5 6 7 7 9 9 9 10 9 9 10 10 9 8 10 10 11 9 9 9 10 6 5 6 7 6 5 6 7 7 7 8 8 8 8 9 10 11 11 9
4 2 2 2 3 3 4 5 6 7 7 6 6 8 9 10 14 15 15 15 16 17 18 18 17 16 15 13 13 13 13 13 13 12 12 9 8 7 6 6 6 6 3 1 2 2 3 5 6 7 7 8 8 9 9 9 8 9 9 10 8 7 7 10 7 9 8 9 8 5 7 8 8 7 5 6 7 7 5 5 7 9 9 8 8 7 3
4 1 1 3 3 3 5 6 6 7 6 5 6 7 8 9 10 12 13 15 16 17 17 17 15 15 14 13 12 13 13 13 12 12 10 9 9 7 6 6 6 5 3 2 2 2 4 5 6 7 8 8 8 8 8 8 7 8 9 8 7 7 8 7 8 6 7 8 8 9 8 6 7 7 8 8 7 6 6 7 8 8 8 7 6 2 5
8 8 7 6 7 6 6 7 5 4 4 4 5 7 8 9 10 11 13 15 16 17 16 16 14 13 12 11 11 11 10 10 11 10 10 11 10 8 8 8 6 5 4 2 2 2 3 4 6 6 7 8 8 7 7 7 6 7 8 7 7 5 7 7 8 7 6 6 7 9 9 9 8 6 6 7 7 7 8 9 9 6 3 3 3 3 3
7 6 5 6 5 5 4 4 3 4 4 5 6 6 7 9 10 11 15 15 14 15 16 15 14 12 6 6 10 11 11 12 9 10 10 10 8 9 8 8 7 5 5 3 2 2 3 5 6 5 7 7 7 7 7 7 6 7 7 7 6 6 6 7 8 7 6 5 6 8 9 9 9 9 9 6 2 4 7 6 6 6 6 6 3 5 7
4 3 3 3 3 4 4 4 3 4 4 5 6 6 8 9 11 12 14 13 12 12 15 16 15 10 10 11 7 4 3 1 8 10 9 9 9 7 6 7 7 6 4 3 3 2 4 5 9 11 6 6 6 8 8 7 5 7 6 6 5 6 7 8 7 7 8 8 8 7 8 11 10 9 8 8 9 8 4 3 3 2 2 5 7 9 10
4 5 4 4 3 3 4 3 3 3 3 4 5 6 8 9 10 11 12 11 11 12 13 15 14 12 11 10 8 11 12 11 11 10 8 6 6 7 8 8 7 5 4 4 4 4 3 5 9 10 6 6 7 8 8 12 6 6 6 6 5 7 8 7 8 8 9 8 9 8 8 8 9 10 10 9 11 10 9 9 8 9 8 7 6 7 6
4 4 4 4 4 4 4 4 2 2 2 4 3 5 7 8 9 9 10 10 10 10 10 12 13 12 10 10 11 12 11 11 10 10 8 8 7 7 8 8 6 5 5 3 4 4 3 7 11 7 5 5 5 6 7 12 11 6 5 6 6 7 8 8 8 9 9 9 9 8 8 9 9 9 10 10 10 10 10 10 10 9 7 7 6 8 10
2 1 2 3 3 3 3 2 0 1 1 3 4 5 7 9 10 10 10 9 9 10 10 10 10 11 12 11 11 12 12 10 9 8 7 7 7 8 8 7 6 5 3 3 4 4 5 7 6 5 5 5 6 7 7 10 11 6 6 5 6 8 8 8 8 9 9 10 9 9 9 8 8 9 9 9 10 10 12 13 11 9 9 8 7 8 9
4 4 4 3 3 3 3 1 0 1 2 2 3 5 6 8 8 8 8 9 9 10 9 9 10 9 10 10 10 10 9 9 8 8 6 5 5 7 6 7 7 5 6 9 6 4 7 10 6 5 5 6 5 5 6 9 8 6 6 6 7 7 8 9 8 9 9 8 10 11 9 10 9 9 9 9 8 10 10 10 11 9 9 9 8 6 9
5 3 2 4 4 3 3 3 2 0 2 3 3 4 5 6 6 7 8 8 8 8 9 8 8 8 9 8 8 8 8 8 8 7 5 4 6 6 7 7 6 5 6 6 6 6 8 7 5 5 5 6 5 7 5 9 6 4 6 7 7 8 8 9 9 9 9 9 9 9 8 8 9 12 10 11 11 10 9 9 9 11 10 10 9 7 6
4 3 3 4 4 4 3 3 2 1 3 3 4 4 5 6 6 7 7 8 7 8 8 8 11 10 8 9 8 8 7 7 8 8 9 9 8 6 6 6 6 5 10 10 9 8 6 6 6 6 5 5 7 12 11 7 6 5 6 7 8 9 8 7 9 9 9 8 8 8 8 8 9 8 9 10 11 11 11 11 10 9 10 10 10 7 4
5 5 5 4 4 4 4 4 3 1 2 3 3 4 4 5 6 7 7 7 7 7 8 7 9 10 9 8 8 9 9 9 7 6 7 8 8 7 6 5 5 7 12 8 8 5 6 6 6 5 10 8 8 12 12 7 7 7 7 7 9 10 9 9 9 9 9 10 9 9 9 9 10 10 10 11 11 11 11 12 12 10 10 10 6 3 6
5 5 5 4 4 3 4 4 2 2 2 2 3 3 4 4 5 6 7 7 7 8 8 7 8 8 9 8 7 7 7 8 8 6 4 5 7 8 7 5 5 8 13 7 7 7 7 6 6 10 15 15 15 13 8 7 7 7 8 8 8 7 8 9 9 10 10 10 10 9 9 10 9 10 10 10 11 12 11 11 11 11 12 7 3 5 9
6 6 5 5 4 4 5 4 4 3 2 1 3 3 4 4 5 6 6 7 7 7 7 7 7 7 7 7 7 7 7 7 6 7 7 7 7 8 7 8 8 6 8 11 8 8 7 8 11 16 14 15 15 13 7 7 7 7 8 8 9 8 8 8 10 10 10 11 9 9 11 10 9 9 10 12 13 12 13 12 11 9 8 8 7 8 10
6 6 5 5 4 4 5 5 3 3 3 3 3 3 3 3 4 5 6 6 6 5 5 6 7 8 8 7 6 6 6 6 6 6 7 7 8 6 6 8 6 9 14 13 7 7 8 16 17 15 16 16 14 9 7 8 7 6 7 8 10 10 9 9 9 10 10 10 10 10 10 9 10 10 10 10 11 12 12 12 11 9 8 8 7 8 9
6 5 5 5 3 3 4 5 4 3 3 2 3 2 2 3 3 4 4 4 4 5 6 6 6 6 6 7 6 5 4 4 5 6 6 6 6 7 9 12 12 14 11 8 7 7 8 10 13 16 15 15 14 8 8 7 7 7 8 8 8 8 9 9 9 10 10 10 11 11 13 12 11 10 11 12 12 11 10 11 10 10 9 9 10 10 9
6 6 5 4 4 4 5 5 4 4 3 2 1 2 1 2 3 3 3 3 4 4 5 5 5 5 5 6 6 6 5 4 6 7 5 6 6 5 5 6 9 13 13 11 13 13 19 18 18 17 16 14 8 7 8 7 8 7 7 8 9 9 9 9 9 9 10 10 10 11 11 11 11 11 11 11 11 11 11 11 10 9 9 9 9 8 9
4 5 4 4 4 5 5 5 4 3 3 2 2 0 1 2 3 3 3 3 3 3 4 4 4 5 5 6 5 5 5 6 6 6 5 5 5 5 6 9 14 14 10 8 8 7 14 18 17 16 15 11 7 7 8 8 8 9 9 9 9 9 9 9 8 8 9 10 10 11 10 11 10 10 10 10 10 10 10 10 10 10 10 8 8 8 8
4 4 4 5 4 5 5 5 4 5 4 3 2 1 0 2 3 2 2 3 3 3 3 4 4 4 4 5 5 5 5 6 6 6 6 6 5 5 7 8 9 14 13 9 10 9 11 15 13 14 10 8 8 8 7 8 8 9 8 10 10 9 11 12 13 14 11 10 9 10 10 10 10 11 11 9 10 10 10 10 10 13 17 11 9 9 9
4 5 4 3 3 3 4 5 6 5 5 4 3 2 1 1 1 2 1 3 4 3 4 4 4 4 4 4 4 5 6 5 6 9 7 7 7 9 11 9 10 11 11 10 8 8 7 7 8 8 8 8 8 8 8 8 7 9 10 9 10 9 9 10 9 10 9 9 9 9 9 9 10 10 9 9 10 9 10 10 9 8 8 8 8 7 8
3 3 4 5 5 4 3 3 4 4 3 3 3 2 3 2 1 1 2 4 3 4 3 4 5 5 4 4 4 4 4 6 5 5 6 6 7 6 8 11 8 9 9 8 8 8 8 8 10 12 11 8 8 9 10 12 9 9 10 10 10 10 11 10 10 10 9 10 9 9 10 9 9 9 9 9 9 9 9 9 8 8 8 8 8 9 8
Wind_Direction
159 200 236 311 22 31 308 297 324 333 326 334 344 275 234 176 168 231 279 310 310 292 307 318 345 355 13 27 28 14 355 7 28 28 23 24 24 24 25 22 22 21 21 12 8 8 11 12 356 283 206 202 198 196 199 193 192 195 191 192 195 197 198 201 203 204 203 204 204 205 205 206 209 212 215 217 216 213 208 210 213 215 217 217 217 217 220
20 337 8 17 31 325 328 290 302 297 309 296 282 273 289 234 245 254 280 287 261 275 287 336 342 349 11 37 41 31 22 16 11 27 26 20 20 24 26 21 20 19 17 16 10 9 13 9 7 6 343 255 202 198 198 191 193 193 187 194 196 198 201 203 204 203 202 202 203 203 205 207 210 211 214 215 215 216 215 214 214 213 216 217 217 217 218
349 321 352 5 2 318 304 284 265 259 278 300 292 288 329 9 330 332 306 294 278 280 354 333 356 349 6 38 38 39 30 16 10 19 27 18 15 16 14 19 20 16 14 13 12 13 9 4 3 0 351 349 320 227 201 194 191 188 187 194 198 201 204 204 203 201 201 202 200 203 205 208 208 209 212 212 214 215 216 216 216 215 215 217 219 219 219
323 318 358 339 341 315 265 256 228 220 243 29 324 357 314 4 275 302 336 356 315 319 342 336 5 9 27 31 29 33 34 19 14 18 19 16 11 12 6 8 14 13 7 7 9 9 360 0 3 356 355 349 352 333 255 203 194 188 189 194 198 201 204 204 202 201 202 201 202 204 204 206 206 208 208 209 212 213 214 215 215 214 218 220 220 221 221
276 284 330 347 338 345 357 328 194 181 174 247 289 284 282 262 227 209 236 250 314 317 321 351 2 14 25 32 18 26 21 25 20 12 12 12 10 7 4 4 7 3 355 357 359 355 358 358 353 355 352 348 349 337 327 273 204 189 194 196 198 200 203 202 203 201 201 201 204 207 207 207 207 206 206 208 210 211 213 213 209 211 218 219 222 222 223
254 308 352 341 25 341 227 229 231 32 19 335 326 304 294 299 312 212 222 207 341 358 345 9 10 21 36 22 27 19 20 9 11 16 13 4 357 5 11 10 1 349 344 340 341 348 357 342 341 341 353 353 337 332 321 310 137 96 245 223 199 202 202 203 202 200 200 201 204 207 206 207 207 207 208 211 210 210 210 207 210 214 214 217 220 221 222
268 331 8 12 317 246 161 295 269 267 252 258 267 274 319 358 349 347 360 19 334 10 336 338 358 81 62 55 30 27 14 10 9 7 8 357 0 359 1 5 6 348 340 334 338 344 347 343 341 342 354 355 341 334 331 322 63 136 132 150 265 230 210 206 203 202 203 203 206 205 204 204 205 208 210 213 211 210 208 208 210 212 212 215 218 219 222
33 48 74 134 239 217 331 298 359 320 87 23 16 15 92 349 344 345 354 339 328 351 23 331 319 296 140 92 60 32 20 11 360 358 356 354 0 357 349 348 348 350 330 320 323 330 322 335 336 348 354 345 342 328 321 313 285 207 185 188 200 205 212 211 208 206 204 206 208 207 206 206 207 209 208 207 208 206 208 211 212 211 213 214 215 217 219
179 198 174 233 328 337 354 3 28 24 30 341 29 275 280 345 341 6 344 327 340 338 348 347 306 290 236 8 26 33 15 359 358 349 338 342 351 347 342 337 333 328 314 311 315 314 326 334 335 343 342 340 331 322 321 322 332 298 300 295 258 226 215 210 212 209 206 206 208 208 206 207 211 212 210 209 210 203 208 211 210 210 212 212 214 216 217
136 156 290 332 352 260 271 226 170 132 205 224 227 197 273 59 350 358 347 323 331 338 334 345 337 313 135 326 329 353 359 344 340 333 330 331 338 336 334 331 334 334 325 319 315 322 325 329 338 340 333 337 321 314 322 325 330 334 313 259 249 249 247 232 222 216 213 211 210 208 206 210 211 212 211 211 210 203 209 210 214 214 211 213 212 212 213
61 121 192 212 211 241 193 265 308 318 328 308 254 166 259 119 3 347 350 323 323 353 338 329 350 21 88 267 303 326 337 323 321 325 330 324 324 333 336 342 341 332 329 319 316 317 323 329 339 342 339 326 308 312 320 316 322 319 315 304 286 262 248 236 235 236 229 222 218 212 210 212 210 209 207 207 205 204 210 212 217 214 214 217 216 214 215
178 159 190 240 221 253 242 268 314 305 305 313 1 332 281 70 347 337 338 322 315 321 323 320 343 42 116 255 287 310 317 311 297 312 314 321 326 328 334 341 333 326 320 312 323 329 328 325 325 333 321 307 311 337 335 322 324 336 353 353 344 331 312 258 226 221 224 227 223 218 216 213 209 209 205 204 204 205 207 210 213 213 214 214 217 218 215
229 221 264 303 290 275 120 295 302 309 309 333 295 231 236 349 322 311 304 307 310 314 312 320 313 256 263 247 269 289 301 304 294 303 305 305 310 318 332 329 334 328 320 318 317 318 318 315 322 324 326 322 337 359 356 331 345 348 339 337 334 326 318 316 290 239 226 221 223 223 221 216 210 207 203 206 205 205 206 208 210 212 214 213 216 219 216
181 197 200 241 260 230 223 283 296 265 60 210 219 202 354 282 302 293 299 299 304 321 315 291 272 279 267 268 273 287 295 298 285 280 298 308 312 320 312 322 334 325 324 322 322 322 323 323 321 323 327 325 321 342 351 343 341 334 330 328 328 324 317 306 299 287 247 230 222 219 218 218 217 216 211 207 206 207 207 206 210 213 214 214 216 218 218
69 83 266 319 297 260 111 333 347 25 158 220 310 305 302 310 300 312 304 293 293 316 314 311 302 301 303 286 275 272 286 299 306 303 304 309 313 315 321 328 330 331 328 328 329 326 329 327 321 321 324 323 326 334 340 344 332 325 324 324 324 321 311 302 295 286 276 245 228 221 216 212 214 219 211 208 209 206 205 207 210 213 214 214 215 217 218
157 173 196 206 213 156 220 89 206 243 209 275 310 304 300 316 309 296 299 293 294 301 299 300 299 292 292 301 296 290 279 285 299 307 293 293 301 304 307 309 320 330 325 327 330 333 330 321 318 317 317 317 321 328 325 333 325 323 321 324 319 316 307 300 294 291 281 264 236 222 219 215 214 215 210 208 208 206 205 206 208 212 215 212 213 216 218
152 202 217 239 222 173 195 165 224 239 264 270 260 260 272 302 301 297 290 298 302 298 299 299 293 288 284 283 291 297 288 270 286 296 302 294 292 298 303 306 311 323 326 320 323 328 329 319 319 316 317 321 319 317 318 322 326 318 317 319 321 311 308 298 289 288 283 267 246 226 222 216 215 214 212 206 207 206 203 206 208 212 213 208 210 214 216
278 255 233 248 269 263 258 202 208 236 267 263 226 257 291 268 273 288 290 294 295 294 293 294 291 280 285 288 292 297 294 278 269 281 294 288 273 280 288 297 312 319 318 318 319 321 323 325 322 320 321 322 317 314 315 321 317 314 310 312 308 308 304 298 290 290 286 276 254 233 222 219 215 209 207 203 205 203 201 205 208 211 210 207 210 212 215
47 278 336 206 236 244 239 257 262 250 245 246 229 274 267 282 287 284 276 281 286 287 287 275 275 281 282 285 282 283 291 289 268 272 289 295 288 281 285 280 297 308 327 325 320 322 324 326 322 316 318 320 316 314 319 321 315 311 307 297 298 298 294 297 295 288 282 273 261 241 225 220 217 212 205 203 204 204 201 205 209 212 210 205 210 211 216
181 245 232 248 244 230 249 249 270 272 251 250 258 253 272 280 281 279 281 282 278 279 278 273 274 279 281 283 282 281 280 284 290 281 276 291 299 290 270 273 281 288 299 304 308 314 316 319 318 314 319 321 315 315 319 320 316 311 302 300 301 302 299 298 292 293 290 283 271 247 230 217 213 211 204 202 203 203 201 203 206 209 206 206 208 210 215
259 301 285 271 290 283 269 255 238 239 236 267 290 295 295 294 293 291 284 265 272 276 274 279 278 279 275 268 269 275 280 283 285 286 278 278 283 286 288 278 273 275 279 289 294 301 306 311 314 316 316 315 315 317 322 321 318 311 307 307 305 298 295 290 283 278 283 289 282 256 232 221 215 208 201 200 205 208 208 203 202 201 202 207 207 210 210
262 235 251 127 285 281 288 265 235 241 256 274 281 290 292 291 291 291 293 293 281 270 271 273 271 270 272 267 265 269 273 277 277 279 282 277 276 284 281 271 264 270 274 274 277 284 294 306 310 308 310 310 312 322 327 324 316 313 312 308 303 299 297 291 286 285 280 284 286 275 247 228 219 221 217 207 202 203 207 208 208 208 198 203 206 206 210
238 239 233 201 214 250 246 243 253 254 261 271 286 287 287 286 281 281 287 295 297 292 283 271 268 268 270 273 268 266 263 266 267 267 272 279 278 279 282 283 274 261 267 273 278 277 285 305 305 306 308 312 315 317 320 316 315 309 307 301 296 294 292 285 283 285 286 285 289 280 260 239 224 219 215 220 26 16 5 327 228 220 214 217 217 211 204
246 228 203 188 174 219 247 235 235 246 243 257 276 280 279 278 279 281 281 279 285 290 289 281 270 270 271 267 265 267 266 263 267 267 265 270 270 268 274 270 269 268 267 273 278 280 287 295 297 300 303 306 307 315 317 312 308 305 301 295 291 290 289 287 285 281 277 282 284 286 272 242 227 216 209 187 158 19 30 124 187 205 213 225 231 217 209
225 205 188 190 208 234 243 251 252 249 255 255 272 282 287 289 287 285 282 284 277 279 283 283 278 268 267 265 259 260 263 263 261 264 264 267 270 267 264 265 263 256 254 258 271 275 279 286 291 295 299 299 307 313 310 307 308 309 303 295 289 289 292 289 287 284 280 277 279 279 287 269 232 210 200 198 184 197 310 14 158 173 184 195 204 210 208
222 202 164 125 150 243 264 324 277 259 250 241 266 280 287 290 291 293 292 291 287 280 274 274 277 272 262 263 260 259 261 260 262 266 264 257 261 261 255 255 258 252 247 253 257 274 284 283 291 298 296 295 305 311 310 311 313 310 299 292 286 285 282 285 281 274 271 265 269 272 251 249 295 236 198 187 188 185 175 167 10 319 231 205 203 205 216
227 196 119 348 299 274 240 220 247 232 228 242 260 277 286 288 291 290 283 277 273 272 269 265 260 263 263 258 258 255 254 261 258 259 256 255 253 253 256 256 253 244 237 239 235 280 298 304 306 301 291 295 302 307 310 311 316 311 303 298 295 307 314 314 306 301 287 274 262 261 251 182 137 161 194 184 175 177 184 189 190 194 206 232 223 199 211
203 193 167 200 225 221 239 230 231 248 256 261 269 279 285 290 290 290 292 292 288 282 279 275 275 269 263 258 252 258 258 259 259 258 255 250 247 247 249 246 234 196 179 203 234 308 307 305 300 297 295 299 308 308 311 317 322 316 306 301 303 307 314 319 316 308 299 289 267 252 258 232 193 176 172 180 184 190 194 197 197 201 217 214 187 167 15
221 209 205 214 226 235 242 266 286 262 264 264 267 277 292 299 294 288 286 289 293 292 288 283 272 269 269 269 259 257 256 254 250 249 251 252 249 246 243 236 187 143 142 142 148 308 311 301 300 299 297 306 309 312 315 319 320 315 307 304 301 308 323 323 318 310 300 283 264 262 271 251 209 188 193 196 200 197 198 199 200 202 205 19 24 282 344
228 221 208 225 234 242 248 263 257 264 269 273 281 281 288 294 295 296 294 293 292 290 287 284 280 271 265 261 258 255 255 253 251 248 247 247 244 241 223 176 137 145 147 119 89 328 313 304 304 302 304 310 314 314 317 317 315 308 301 299 294 304 319 322 321 317 309 293 258 238 247 246 226 207 208 205 204 202 199 202 201 189 176 167 182 217 227
211 206 209 222 226 219 220 245 256 265 273 279 277 284 288 289 290 296 300 299 294 287 286 284 281 277 269 260 253 248 246 249 250 249 246 245 238 206 173 162 164 159 103 78 8 339 316 313 302 302 306 310 313 315 317 314 312 307 297 293 300 306 313 337 341 330 312 300 256 231 232 232 238 234 213 210 218 216 209 198 187 198 209 213 211 206 203
150 173 207 237 230 242 259 261 264 270 272 276 287 288 295 305 307 307 307 305 296 293 289 285 279 271 265 257 251 245 241 240 244 245 243 229 186 158 147 132 119 115 121 87 49 1 336 321 318 310 311 311 310 312 314 310 309 308 299 310 312 320 326 346 2 346 333 337 325 263 231 224 229 220 230 226 221 214 213 209 209 214 213 223 235 237 159
133 107 305 269 263 263 263 262 258 270 272 280 278 283 292 294 299 303 304 298 295 295 294 288 280 272 263 256 248 244 239 238 235 235 217 174 154 141 130 119 112 116 113 74 31 17 355 332 317 315 321 315 309 305 307 304 309 303 299 302 306 325 342 347 3 351 2 360 354 344 324 278 245 234 224 218 209 199 204 212 214 217 217 208 204 178 152
175 190 200 197 187 208 231 254 243 248 269 271 280 288 291 301 302 305 301 300 305 312 309 302 285 274 259 245 241 236 238 238 236 215 164 154 145 142 136 127 127 121 109 85 46 7 342 316 306 314 326 315 308 306 299 303 313 303 297 299 318 332 355 358 2 11 10 12 4 354 352 349 336 294 259 227 208 198 200 205 215 206 145 127 163 88 87
186 204 193 201 196 202 195 207 234 254 272 288 298 294 298 304 310 306 313 322 322 323 323 322 325 314 300 235 221 222 217 217 191 152 142 133 135 136 139 137 132 108 80 57 27 356 347 322 312 331 334 319 312 314 304 312 331 306 304 315 335 4 5 12 15 12 4 4 22 16 6 2 357 353 346 346 293 245 228 228 219 200 185 180 106 97 74
173 189 208 212 206 201 202 214 231 250 265 278 284 301 313 314 320 319 321 325 326 335 339 337 336 333 28 21 24 22 18 110 116 120 119 119 117 116 122 113 97 89 72 57 18 352 359 335 352 355 350 328 329 322 318 338 338 322 324 339 358 20 21 24 23 24 19 10 25 37 29 16 14 11 5 7 18 15 31 41 35 58 101 103 111 103 100
193 183 191 200 199 186 203 222 233 245 269 289 306 316 317 324 326 325 330 335 341 344 351 349 345 354 30 25 38 63 61 52 48 38 42 51 86 105 102 97 92 86 68 39 351 339 4 357 3 5 358 334 338 325 334 358 358 337 324 339 9 30 34 27 27 29 24 18 22 22 44 40 30 25 21 22 26 29 26 37 45 51 51 43 43 48 56
202 181 178 187 189 184 199 220 237 254 289 312 318 323 327 327 324 330 336 342 345 346 359 2 356 1 11 29 40 48 55 52 54 54 48 49 39 53 63 72 73 73 60 27 334 335 13 17 13 0 334 340 331 316 337 12 18 360 333 355 21 34 41 34 30 30 30 26 24 19 22 46 54 45 36 31 30 33 35 31 28 36 39 51 68 81 87
168 183 163 172 155 167 190 235 331 296 316 318 320 329 333 335 345 348 343 349 349 358 1 360 3 10 11 21 37 42 40 41 47 50 48 51 60 62 57 50 52 44 51 29 0 353 31 30 14 347 348 340 347 329 351 19 25 13 1 11 23 45 47 43 36 35 33 31 32 28 24 24 42 55 60 54 45 38 39 46 40 24 31 31 49 78 87
175 167 168 158 164 182 170 197 247 288 307 342 351 338 336 346 344 347 353 354 0 4 8 8 10 16 12 20 37 41 39 37 40 41 37 40 61 68 66 49 36 31 39 40 22 3 31 39 21 344 350 340 354 350 3 25 28 21 10 19 33 47 54 53 47 43 38 34 35 36 34 32 32 36 46 47 57 58 54 46 43 32 19 23 19 22 73
177 172 145 157 166 157 160 134 118 334 339 348 356 348 348 348 342 3 4 4 358 1 4 13 15 19 16 7 21 36 41 46 48 45 31 48 55 52 53 39 6 15 36 41 36 32 26 25 32 13 348 358 348 29 19 21 16 20 31 38 42 48 53 54 55 48 45 41 38 32 34 36 41 43 44 51 48 44 38 49 63 60 38 18 28 12 28
179 139 123 136 147 160 148 139 117 34 8 13 2 2 354 355 5 12 13 12 9 8 7 9 30 30 17 14 15 22 29 36 43 42 41 41 39 36 44 38 359 12 45 41 33 32 23 13 20 29 25 17 24 37 37 28 11 22 40 46 49 50 51 52 56 54 49 45 40 38 36 38 44 48 51 51 49 49 50 43 34 45 71 56 26 359 44
147 145 150 147 152 139 133 135 149 147 39 17 8 360 359 6 8 11 15 16 15 11 16 9 14 19 20 14 15 19 20 14 17 29 42 42 40 34 35 22 355 27 44 44 34 20 27 22 21 25 43 45 42 40 37 27 20 25 37 48 53 52 50 50 56 58 55 52 47 42 39 39 46 51 51 55 57 55 50 51 48 39 38 49 45 314 55
150 142 147 148 149 138 134 141 144 101 70 20 358 7 15 17 17 15 14 16 17 18 19 15 16 16 16 12 15 25 24 16 11 358 21 52 46 37 23 28 9 34 47 44 37 31 28 31 36 41 45 49 49 45 40 28 32 35 42 49 50 50 54 55 54 58 59 56 54 49 45 43 44 53 55 56 60 64 58 55 58 50 47 32 5 42 60
149 149 150 155 149 121 140 153 151 141 134 78 37 30 23 21 22 16 18 14 17 19 18 18 18 15 8 7 16 20 21 21 12 7 12 30 41 39 20 32 37 30 42 47 42 41 39 41 45 49 50 50 51 48 37 33 35 44 47 53 58 52 54 57 60 60 61 61 55 52 55 54 46 46 54 64 66 62 65 65 58 63 70 56 29 42 53
143 142 146 138 127 143 163 157 140 120 96 73 51 38 34 27 27 24 21 21 18 13 18 21 22 15 6 6 5 9 9 14 16 20 28 24 32 14 22 44 43 50 47 45 40 39 43 51 49 48 50 51 49 43 40 45 45 42 45 51 59 61 57 55 54 60 60 62 63 62 58 51 52 51 53 55 60 68 67 67 70 60 60 67 61 54 60
133 139 141 140 146 137 132 129 132 115 96 81 62 35 27 26 32 30 22 14 9 6 7 10 15 16 6 2 3 2 2 17 28 25 29 25 37 47 43 43 45 49 51 46 42 42 48 49 50 49 49 49 48 44 44 41 42 46 51 54 54 57 58 56 55 56 58 58 60 61 62 59 52 49 49 49 55 57 62 65 65 63 57 58 61 63 64
149 150 142 137 130 128 128 130 132 135 143 147 147 62 50 24 29 35 28 15 9 5 6 2 5 1 360 2 2 8 13 8 43 39 17 29 16 18 40 54 52 47 43 42 48 48 50 50 52 52 51 45 38 37 42 44 44 42 49 56 60 58 58 59 57 56 58 58 62 64 62 60 59 56 52 52 53 55 58 57 54 54 55 57 59 61 65
158 151 145 139 128 123 136 147 151 153 166 161 121 140 73 51 28 17 10 8 359 7 0 356 359 359 351 356 14 3 9 20 37 45 25 29 29 34 35 46 50 49 44 41 38 34 49 50 50 50 48 46 41 41 42 44 51 54 50 51 56 59 57 57 58 58 61 64 63 65 64 67 66 64 63 60 62 62 62 62 62 64 65 59 54 48 53
150 128 124 137 136 139 148 148 155 159 158 140 154 185 97 56 38 355 348 351 347 18 10 352 357 347 343 340 348 7 5 21 32 33 30 32 32 36 48 51 51 52 51 49 47 38 35 42 43 46 41 35 38 45 43 45 47 51 53 56 56 58 59 61 61 61 61 60 61 65 67 68 72 76 75 71 69 68 68 69 68 65 63 60 62 62 58
146 143 148 148 148 156 163 162 160 156 150 151 158 171 148 105 99 63 21 19 7 8 19 15 25 12 6 8 10 18 19 13 35 46 37 28 30 44 47 51 55 56 53 49 42 39 29 28 41 40 37 40 41 48 52 49 45 54 55 54 55 58 61 64 68 70 66 67 67 67 68 68 69 70 69 69 70 69 68 68 66 64 63 60 54 50 54
142 123 93 86 88 97 105 100 118 132 140 144 165 158 121 108 74 32 32 35 15 9 22 37 30 12 30 36 33 19 4 32 26 25 40 42 36 29 37 46 51 57 57 54 44 34 32 37 44 47 49 53 51 50 53 56 55 57 59 61 62 62 63 63 63 65 65 65 64 67 67 65 65 65 63 61 63 65 63 63 64 62 61 60 58 56 53